Location: Bretagne
(43.8474°N, 0.4650°W)
Time: 09:52:24
(UTC+00:00)

OPS 8737 - Pass Details

Date: 15 January 2026
Orbit: 386 x 1313 km, 63.3° (Epoch: 10 February)

Event Time Altitude Azimuth Distance (km) Brightness Sun altitude
Rises 17:24:41 0° 324° (NW) 2,314 8.2 -6.5°
Reaches altitude 10° 17:26:44 10° 327° (NNW) 1,424 7.1 -6.8°
Maximum altitude 17:29:47 72° 52° (NE) 412 4.0 -7.3°
Drops below altitude 10° 17:32:55 10° 138° (SE) 1,467 6.8 -7.8°
Sets 17:35:04 0° 140° (SE) 2,393 7.9 -8.2°
